TVF1760 LFPO-LFBO

Flight info

Callsign TVF1760
Flight time 1h 0m
Altitude 31000
Route ERIXU DCT ETAMO DCT GUERE DCT NARAK
Aircraft B738/M-SDE2E3FGHIRWXY/LB1

Departure

Time 2026-05-07 07:53
Airport Paris-Orly Airport (LFPO)

Arrival

Time 2026-05-07 08:53
Airport Toulouse-Blagnac Airport (LFBO)
Time Latitude Longitude Altitude Speed Heading
2026-05-07 07:21 48.73073 2.35896 297 ft 0 kts 134°
2026-05-07 07:41 48.73081 2.35884 298 ft 2 kts 133°
2026-05-07 07:41 48.73092 2.35866 297 ft 2 kts 133°
2026-05-07 07:41 48.73102 2.35848 295 ft 2 kts 117°
2026-05-07 07:42 48.73107 2.35826 297 ft 2 kts 84°
2026-05-07 07:42 48.73106 2.35815 297 ft 0 kts 70°
2026-05-07 07:48 48.73112 2.35829 295 ft 6 kts 53°
2026-05-07 07:48 48.73149 2.35877 294 ft 8 kts 46°
2026-05-07 07:48 48.73185 2.35954 292 ft 10 kts 56°
2026-05-07 07:49 48.73227 2.36048 294 ft 11 kts 55°
2026-05-07 07:49 48.73284 2.36105 292 ft 8 kts 351°
2026-05-07 07:49 48.73332 2.36074 294 ft 7 kts 346°
2026-05-07 07:49 48.73381 2.36085 295 ft 7 kts 17°
2026-05-07 07:50 48.73425 2.36099 291 ft 2 kts
2026-05-07 07:50 48.73439 2.36098 291 ft 0 kts 355°
2026-05-07 07:51 48.73473 2.36085 295 ft 7 kts 337°
2026-05-07 07:51 48.73504 2.36033 291 ft 7 kts 296°
2026-05-07 07:51 48.73506 2.35964 291 ft 7 kts 255°
2026-05-07 07:51 48.73488 2.35906 294 ft 0 kts 244°
2026-05-07 07:52 48.73476 2.35872 291 ft 18 kts 242°
2026-05-07 07:52 48.73303 2.35383 293 ft 99 kts 242°
2026-05-07 07:53 48.72827 2.34025 320 ft 184 kts 242°
2026-05-07 07:53 48.72198 2.32192 1060 ft 210 kts 244°
2026-05-07 07:53 48.71487 2.30164 2059 ft 230 kts 242°
2026-05-07 07:53 48.70715 2.28031 3228 ft 230 kts 242°
2026-05-07 07:54 48.69914 2.25837 3994 ft 239 kts 242°
2026-05-07 07:54 48.69137 2.23670 5116 ft 242 kts 242°
2026-05-07 07:54 48.68267 2.21296 5508 ft 255 kts 239°
2026-05-07 07:54 48.67348 2.19110 6131 ft 239 kts 233°
2026-05-07 07:55 48.66381 2.17176 6730 ft 223 kts 227°
2026-05-07 07:55 48.65091 2.15980 7346 ft 218 kts 202°
2026-05-07 07:55 48.63687 2.14999 7995 ft 229 kts 206°
2026-05-07 07:55 48.62231 2.13848 8689 ft 242 kts 208°
2026-05-07 07:56 48.60742 2.12569 9366 ft 248 kts 211°
2026-05-07 07:56 48.59263 2.11231 9981 ft 249 kts 211°
2026-05-07 07:56 48.57774 2.09850 10013 ft 252 kts 212°
2026-05-07 07:56 48.56305 2.08472 10271 ft 242 kts 212°
2026-05-07 07:57 48.54859 2.07118 10735 ft 247 kts 210°
2026-05-07 07:57 48.53194 2.06388 11168 ft 261 kts 179°
2026-05-07 07:57 48.51365 2.06980 11697 ft 279 kts 161°
2026-05-07 07:57 48.49506 2.08123 12193 ft 298 kts 158°
2026-05-07 07:58 48.47537 2.09413 12684 ft 316 kts 157°
2026-05-07 07:58 48.45536 2.10714 13167 ft 332 kts 158°
2026-05-07 07:58 48.43298 2.12133 13676 ft 343 kts 159°
2026-05-07 07:58 48.41104 2.13505 14114 ft 345 kts 159°
2026-05-07 07:59 48.38880 2.14888 14540 ft 347 kts 159°
2026-05-07 07:59 48.36643 2.16274 14980 ft 349 kts 159°
2026-05-07 07:59 48.34370 2.17680 15426 ft 350 kts 159°
2026-05-07 07:59 48.32149 2.19052 15866 ft 352 kts 159°
2026-05-07 08:00 48.29875 2.20454 16326 ft 354 kts 159°
2026-05-07 08:00 48.27493 2.21535 16781 ft 355 kts 171°
2026-05-07 08:00 48.25076 2.22118 17269 ft 357 kts 173°
2026-05-07 08:00 48.22614 2.22638 17752 ft 360 kts 173°
2026-05-07 08:01 48.20120 2.23174 18250 ft 363 kts 173°
2026-05-07 08:01 48.17606 2.23743 18683 ft 366 kts 173°
2026-05-07 08:01 48.15082 2.24339 19107 ft 369 kts 172°
2026-05-07 08:01 48.12526 2.24955 19554 ft 372 kts 172°
2026-05-07 08:02 48.09968 2.25574 19996 ft 373 kts 172°
2026-05-07 08:02 48.07396 2.26134 20455 ft 374 kts 176°
2026-05-07 08:02 48.04806 2.26417 20914 ft 375 kts 179°
2026-05-07 08:02 48.02195 2.26565 21386 ft 376 kts 180°
2026-05-07 08:03 47.99577 2.26677 21852 ft 377 kts 180°
2026-05-07 08:03 47.96937 2.26791 22347 ft 382 kts 180°
2026-05-07 08:03 47.94253 2.26921 22844 ft 389 kts 180°
2026-05-07 08:03 47.91530 2.27067 23348 ft 392 kts 179°
2026-05-07 08:04 47.88795 2.27226 23807 ft 394 kts 179°
2026-05-07 08:04 47.86050 2.27393 24231 ft 395 kts 179°
2026-05-07 08:04 47.83297 2.27565 24658 ft 396 kts 179°
2026-05-07 08:04 47.80577 2.27737 25091 ft 397 kts 179°
2026-05-07 08:05 47.77817 2.27913 25527 ft 398 kts 179°
2026-05-07 08:05 47.75006 2.28091 25989 ft 400 kts 179°
2026-05-07 08:05 47.72201 2.28268 26455 ft 405 kts 179°
2026-05-07 08:05 47.69372 2.28447 26922 ft 409 kts 179°
2026-05-07 08:06 47.66552 2.28625 27385 ft 410 kts 179°
2026-05-07 08:06 47.63714 2.28804 27862 ft 408 kts 179°
2026-05-07 08:06 47.60898 2.28983 28336 ft 406 kts 179°
2026-05-07 08:06 47.58079 2.29160 28824 ft 404 kts 179°
2026-05-07 08:07 47.55265 2.29338 29323 ft 403 kts 179°
2026-05-07 08:07 47.52999 2.29480 29732 ft 401 kts 179°
2026-05-07 08:07 47.50220 2.29655 30224 ft 399 kts 179°
2026-05-07 08:07 47.47427 2.29829 30672 ft 401 kts 179°
2026-05-07 08:08 47.44639 2.30003 31041 ft 405 kts 179°
2026-05-07 08:08 47.39861 2.30298 31054 ft 422 kts 179°
2026-05-07 08:09 47.32877 2.30731 31060 ft 441 kts 179°
2026-05-07 08:09 47.27671 2.31055 31052 ft 451 kts 179°
2026-05-07 08:10 47.21384 2.31448 31038 ft 452 kts 179°
2026-05-07 08:10 47.15095 2.31839 31040 ft 452 kts 179°
2026-05-07 08:11 47.08856 2.32225 31042 ft 451 kts 179°
2026-05-07 08:11 47.02597 2.32611 31044 ft 450 kts 179°
2026-05-07 08:12 46.96368 2.32994 31041 ft 448 kts 179°
2026-05-07 08:12 46.90147 2.33376 31043 ft 446 kts 179°
2026-05-07 08:13 46.83964 2.33495 31035 ft 443 kts 187°
2026-05-07 08:13 46.77981 2.31589 31045 ft 439 kts 197°
2026-05-07 08:14 46.72080 2.29216 31038 ft 439 kts 197°
2026-05-07 08:14 46.66174 2.26889 31039 ft 440 kts 197°
2026-05-07 08:15 46.60303 2.24627 31032 ft 440 kts 197°
2026-05-07 08:15 46.54385 2.22367 31037 ft 440 kts 197°
2026-05-07 08:16 46.48468 2.20112 31037 ft 440 kts 197°
2026-05-07 08:16 46.42546 2.17859 31032 ft 440 kts 197°
2026-05-07 08:17 46.36626 2.15610 31016 ft 440 kts 197°
2026-05-07 08:17 46.30693 2.13362 31027 ft 440 kts 197°
2026-05-07 08:18 46.24768 2.11122 31015 ft 440 kts 197°
2026-05-07 08:18 46.18831 2.08910 31014 ft 440 kts 195°
2026-05-07 08:19 46.12791 2.07602 31013 ft 442 kts 189°
2026-05-07 08:19 46.06646 2.06565 31018 ft 442 kts 189°
2026-05-07 08:20 46.00541 2.05508 31011 ft 441 kts 190°
2026-05-07 08:20 45.94474 2.04411 31013 ft 441 kts 190°
2026-05-07 08:21 45.88391 2.03292 31007 ft 441 kts 190°
2026-05-07 08:21 45.82318 2.02175 31002 ft 440 kts 190°
2026-05-07 08:22 45.76240 2.01060 31001 ft 440 kts 190°
2026-05-07 08:22 45.70170 1.99950 31012 ft 440 kts 190°
2026-05-07 08:23 45.64158 1.98852 31000 ft 439 kts 190°
2026-05-07 08:23 45.58044 1.97739 31004 ft 439 kts 190°
2026-05-07 08:24 45.51974 1.96637 31005 ft 439 kts 190°
2026-05-07 08:24 45.45934 1.95542 31003 ft 438 kts 190°
2026-05-07 08:25 45.39918 1.94454 31011 ft 438 kts 189°
2026-05-07 08:25 45.33866 1.93361 31004 ft 438 kts 189°
2026-05-07 08:26 45.24805 1.91730 31013 ft 437 kts 189°
2026-05-07 08:26 45.18768 1.90646 31011 ft 437 kts 190°
2026-05-07 08:27 45.12730 1.89565 31014 ft 437 kts 190°
2026-05-07 08:27 45.06722 1.88490 31012 ft 437 kts 190°
2026-05-07 08:28 45.00702 1.87416 31003 ft 437 kts 190°
2026-05-07 08:28 44.97670 1.86876 30571 ft 439 kts 190°
2026-05-07 08:28 44.94661 1.86342 30103 ft 432 kts 190°
2026-05-07 08:29 44.91696 1.85817 29558 ft 426 kts 190°
2026-05-07 08:29 44.88769 1.85299 29027 ft 421 kts 190°
2026-05-07 08:29 44.85874 1.84787 28492 ft 416 kts 190°
2026-05-07 08:29 44.83025 1.84282 27971 ft 411 kts 190°
2026-05-07 08:30 44.80226 1.83786 27467 ft 407 kts 190°
2026-05-07 08:30 44.77430 1.83292 26960 ft 402 kts 189°
2026-05-07 08:30 44.74669 1.82804 26466 ft 398 kts 189°
2026-05-07 08:30 44.71942 1.82322 25980 ft 394 kts 189°
2026-05-07 08:31 44.69351 1.81865 25535 ft 391 kts 189°
2026-05-07 08:31 44.66705 1.81398 25076 ft 388 kts 189°
2026-05-07 08:31 44.64034 1.80927 24623 ft 385 kts 189°
2026-05-07 08:31 44.61379 1.80460 24172 ft 383 kts 189°
2026-05-07 08:32 44.58737 1.79995 23705 ft 381 kts 189°
2026-05-07 08:32 44.56145 1.79540 23227 ft 379 kts 188°
2026-05-07 08:32 44.53495 1.79075 22696 ft 377 kts 188°
2026-05-07 08:32 44.50937 1.78627 22181 ft 375 kts 188°
2026-05-07 08:33 44.48349 1.78174 21691 ft 374 kts 188°
2026-05-07 08:33 44.45784 1.77725 21193 ft 372 kts 188°
2026-05-07 08:33 44.43252 1.77283 20702 ft 365 kts 188°
2026-05-07 08:33 44.40760 1.76848 20219 ft 359 kts 188°
2026-05-07 08:34 44.38288 1.76416 19745 ft 357 kts 188°
2026-05-07 08:34 44.35815 1.75984 19290 ft 360 kts 188°
2026-05-07 08:34 44.33327 1.75550 18832 ft 361 kts 188°
2026-05-07 08:34 44.30873 1.75108 18390 ft 358 kts 191°
2026-05-07 08:35 44.28585 1.74032 17864 ft 354 kts 210°
2026-05-07 08:35 44.26480 1.72154 17383 ft 350 kts 215°
2026-05-07 08:35 44.24582 1.70312 16901 ft 345 kts 216°
2026-05-07 08:35 44.22648 1.68408 16391 ft 335 kts 216°
2026-05-07 08:36 44.20768 1.66566 15900 ft 326 kts 216°
2026-05-07 08:36 44.18936 1.64785 15421 ft 319 kts 215°
2026-05-07 08:36 44.17130 1.63042 14946 ft 312 kts 215°
2026-05-07 08:36 44.15392 1.61375 14490 ft 307 kts 215°
2026-05-07 08:37 44.13650 1.59707 14032 ft 302 kts 215°
2026-05-07 08:37 44.11927 1.58062 13544 ft 299 kts 215°
2026-05-07 08:37 44.10220 1.56436 13054 ft 295 kts 215°
2026-05-07 08:37 44.08542 1.54837 12550 ft 292 kts 215°
2026-05-07 08:38 44.06868 1.53244 12060 ft 289 kts 215°
2026-05-07 08:38 44.05220 1.51676 11587 ft 286 kts 216°
2026-05-07 08:38 44.03584 1.50121 11096 ft 283 kts 216°
2026-05-07 08:38 44.01975 1.48594 10648 ft 281 kts 216°
2026-05-07 08:39 44.00375 1.47076 10194 ft 278 kts 216°
2026-05-07 08:39 43.98780 1.45573 9701 ft 276 kts 214°
2026-05-07 08:39 43.96995 1.44609 9190 ft 278 kts 193°
2026-05-07 08:39 43.95103 1.44167 8706 ft 275 kts 191°
2026-05-07 08:40 43.93221 1.43743 8227 ft 273 kts 191°
2026-05-07 08:40 43.91390 1.43324 8094 ft 270 kts 192°
2026-05-07 08:40 43.89529 1.42887 8038 ft 270 kts 192°
2026-05-07 08:40 43.87699 1.42454 8037 ft 268 kts 192°
2026-05-07 08:41 43.85885 1.42023 8045 ft 268 kts 192°
2026-05-07 08:41 43.84080 1.41613 8031 ft 269 kts 187°
2026-05-07 08:41 43.82287 1.41953 8050 ft 273 kts 160°
2026-05-07 08:41 43.80828 1.43155 8056 ft 275 kts 144°
2026-05-07 08:42 43.79315 1.44810 8068 ft 273 kts 143°
2026-05-07 08:42 43.78037 1.46230 8061 ft 273 kts 143°
2026-05-07 08:42 43.76678 1.47722 8061 ft 271 kts 143°
2026-05-07 08:42 43.75203 1.49324 8066 ft 271 kts 143°
2026-05-07 08:43 43.73712 1.50933 8055 ft 272 kts 144°
2026-05-07 08:43 43.72219 1.52541 8046 ft 272 kts 144°
2026-05-07 08:43 43.70741 1.54130 7911 ft 268 kts 144°
2026-05-07 08:43 43.69286 1.55694 7544 ft 266 kts 144°
2026-05-07 08:44 43.67854 1.57233 7203 ft 262 kts 144°
2026-05-07 08:44 43.66421 1.58770 6849 ft 259 kts 144°
2026-05-07 08:44 43.65051 1.60238 6530 ft 258 kts 144°
2026-05-07 08:44 43.63639 1.61751 6169 ft 256 kts 144°
2026-05-07 08:45 43.62154 1.63061 5775 ft 253 kts 163°
2026-05-07 08:45 43.60465 1.63368 5452 ft 247 kts 184°
2026-05-07 08:45 43.58762 1.63133 5108 ft 245 kts 189°
2026-05-07 08:45 43.57097 1.62825 4742 ft 236 kts 189°
2026-05-07 08:46 43.55501 1.62534 4361 ft 227 kts 189°
2026-05-07 08:46 43.53954 1.62255 4046 ft 223 kts 188°
2026-05-07 08:46 43.52401 1.61986 4019 ft 226 kts 188°
2026-05-07 08:46 43.50840 1.61723 3899 ft 226 kts 187°
2026-05-07 08:47 43.49328 1.61306 3707 ft 223 kts 205°
2026-05-07 08:47 43.48184 1.59939 3541 ft 219 kts 239°
2026-05-07 08:47 43.47640 1.58021 3392 ft 212 kts 256°
2026-05-07 08:47 43.47314 1.56058 3221 ft 208 kts 258°
2026-05-07 08:48 43.47056 1.54124 3081 ft 205 kts 269°
2026-05-07 08:48 43.47511 1.52375 3000 ft 189 kts 315°
2026-05-07 08:48 43.48475 1.51256 2988 ft 176 kts 321°
2026-05-07 08:48 43.49366 1.50262 2994 ft 157 kts 322°
2026-05-07 08:49 43.50180 1.49396 2979 ft 141 kts 323°
2026-05-07 08:49 43.50872 1.48673 2974 ft 122 kts 324°
2026-05-07 08:49 43.51583 1.47968 2953 ft 128 kts 324°
2026-05-07 08:49 43.52321 1.47217 2895 ft 136 kts 324°
2026-05-07 08:50 43.53094 1.46416 2734 ft 145 kts 323°
2026-05-07 08:50 43.53911 1.45564 2532 ft 147 kts 323°
2026-05-07 08:50 43.54721 1.44717 2326 ft 146 kts 323°
2026-05-07 08:50 43.55523 1.43877 2118 ft 143 kts 323°
2026-05-07 08:51 43.56311 1.43053 1933 ft 143 kts 323°
2026-05-07 08:51 43.57104 1.42228 1785 ft 141 kts 321°
2026-05-07 08:51 43.57886 1.41409 1572 ft 139 kts 323°
2026-05-07 08:51 43.58630 1.40607 1364 ft 136 kts 323°
2026-05-07 08:52 43.59393 1.39798 1158 ft 137 kts 323°
2026-05-07 08:52 43.60150 1.39008 941 ft 137 kts 324°
2026-05-07 08:52 43.60908 1.38233 753 ft 135 kts 324°
2026-05-07 08:52 43.61644 1.37471 600 ft 134 kts 323°
2026-05-07 08:53 43.62382 1.36704 496 ft 127 kts 323°
2026-05-07 08:53 43.62993 1.36066 486 ft 91 kts 322°
2026-05-07 08:53 43.63302 1.35747 488 ft 15 kts 323°
2026-05-07 08:53 43.63383 1.35662 488 ft 14 kts 323°
2026-05-07 08:54 43.63461 1.35581 489 ft 14 kts 323°
2026-05-07 08:54 43.63538 1.35512 485 ft 13 kts 341°
2026-05-07 08:54 43.63602 1.35546 491 ft 6 kts 48°
2026-05-07 08:54 43.63628 1.35590 487 ft 6 kts 51°
2026-05-07 08:55 43.63657 1.35645 490 ft 8 kts 53°
2026-05-07 08:55 43.63695 1.35715 491 ft 10 kts 53°
2026-05-07 08:55 43.63741 1.35797 488 ft 11 kts 52°
2026-05-07 08:55 43.63774 1.35852 493 ft 11 kts 52°
2026-05-07 08:56 43.63813 1.35941 491 ft 11 kts 78°
2026-05-07 08:56 43.63780 1.36028 488 ft 11 kts 139°
2026-05-07 08:56 43.63723 1.36089 491 ft 10 kts 143°
2026-05-07 08:56 43.63659 1.36156 493 ft 13 kts 142°
2026-05-07 08:57 43.63586 1.36232 493 ft 14 kts 143°
2026-05-07 08:57 43.63506 1.36316 489 ft 15 kts 141°
2026-05-07 08:57 43.63427 1.36398 490 ft 14 kts 143°
2026-05-07 08:57 43.63351 1.36475 493 ft 13 kts 143°
2026-05-07 08:58 43.63278 1.36550 485 ft 13 kts 143°
2026-05-07 08:58 43.63208 1.36623 489 ft 12 kts 142°
2026-05-07 08:58 43.63140 1.36695 489 ft 12 kts 142°
2026-05-07 08:58 43.63073 1.36764 487 ft 12 kts 143°
2026-05-07 08:59 43.63008 1.36832 488 ft 12 kts 142°
2026-05-07 08:59 43.62954 1.36908 489 ft 11 kts 109°
2026-05-07 08:59 43.62979 1.37005 484 ft 11 kts 55°
2026-05-07 08:59 43.63016 1.37087 493 ft 10 kts 79°
2026-05-07 09:00 43.63002 1.37154 487 ft 1 kts 103°
2026-05-07 09:00 43.63001 1.37166 488 ft 5 kts 94°
2026-05-07 09:00 43.63014 1.37205 492 ft 4 kts 54°
2026-05-07 09:00 43.63030 1.37235 490 ft 4 kts 54°
2026-05-07 09:01 43.63036 1.37247 493 ft 0 kts 53°